Terug naar catalogus

STARLINK-30301

ActiefCommunicatieVLEO
NORAD 57666·PAYLOAD·🇺🇸 United States

Gelanceerd Aug 22, 2023 vanaf Vandenberg Space Force Base

Loading…

Volgende Passages (komende 24 uur)

TLE

VersSource: CelesTrak SupGP

Epoch: Sep 14, 2026, 21:35 UTC

1 57666C 23124D   26257.89979167  .00049750  00000+0  14877-2 0  2570
2 57666  53.1579 106.5130 0001078 140.1928 359.2417 15.33985615    17

Volg STARLINK-30301 in realtime met AllMySat

Download on the App Store